,,,PA_Meas_PMT16A,,PR_Meas_QMR101_102,,RH_Meas_QMH101,,SR_Meas_QMS101,,TA_Meas_QMH101,,GenWind,,GenWind,
date,time,status,PA,status,PR,status,RH,status,SR,status,TA,status,DirAvg,status,SpdAvg,
2008-03-22, 00:00:05,VALID,1009.1,VALID,0,VALID,95.2228,VALID,0,VALID,23.8322,VALID,57,VALID,0,
2008-03-22, 00:01:05,VALID,1009.11,VALID,0,VALID,95.2914,VALID,0,VALID,23.8322,VALID,57,VALID,0,
2008-03-22, 00:02:05,VALID,1009.08,VALID,0,VALID,95.299,VALID,0,VALID,23.8109,VALID,57,VALID,0,
2008-03-22, 00:03:05,VALID,1009.08,VALID,0,VALID,95.3295,VALID,0,VALID,23.772,VALID,57,VALID,0,
2008-03-22, 00:04:05,VALID,1009.07,VALID,0,VALID,95.36,VALID,0,VALID,23.733,VALID,57,VALID,0,
2008-03-22, 00:05:05,VALID,1009.05,VALID,0,VALID,95.4134,VALID,0,VALID,23.7525,VALID,57,VALID,0,
2008-03-22, 00:06:05,VALID,1009.02,VALID,0,VALID,95.4287,VALID,0,VALID,23.733,VALID,57,VALID,0,
2008-03-22, 00:07:05,VALID,1009.06,VALID,0,VALID,95.4668,VALID,0,VALID,23.7135,VALID,57,VALID,0,
2008-03-22, 00:08:05,VALID,1009.04,VALID,0,VALID,95.5278,VALID,0,VALID,23.7135,VALID,57,VALID,0,
2008-03-22, 00:09:05,VALID,1009.01,VALID,0,VALID,95.5964,VALID,0,VALID,23.694,VALID,57,VALID,0,
2008-03-22, 00:10:05,VALID,1009.02,VALID,0,VALID,95.6193,VALID,0,VALID,23.694,VALID,57,VALID,0,
2008-03-22, 00:11:05,VALID,1009.06,VALID,0,VALID,95.6041,VALID,0,VALID,23.6745,VALID,57,VALID,0,
2008-03-22, 00:12:05,VALID,1009.06,VALID,0,VALID,95.6498,VALID,0,VALID,23.6356,VALID,57,VALID,0,
2008-03-22, 00:13:05,VALID,1009.05,VALID,0,VALID,95.6346,VALID,0,VALID,23.6356,VALID,57,VALID,0,
2008-03-22, 00:14:05,VALID,1009.08,VALID,0,VALID,95.6803,VALID,0,VALID,23.6161,VALID,57,VALID,0,
2008-03-22, 00:15:05,VALID,1009.06,VALID,0,VALID,95.6956,VALID,0,VALID,23.6161,VALID,57,VALID,0,
2008-03-22, 00:16:05,VALID,1009.04,VALID,0,VALID,95.7566,VALID,0,VALID,23.5966,VALID,57,VALID,0,
2008-03-22, 00:17:05,VALID,1009.03,VALID,0,VALID,95.8557,VALID,0,VALID,23.6161,VALID,57,VALID,0,
2008-03-22, 00:18:05,VALID,1009.04,VALID,0,VALID,95.9015,VALID,0,VALID,23.6179,VALID,57,VALID,0.0238281,
2008-03-22, 00:19:05,VALID,1008.99,VALID,0,VALID,95.9244,VALID,0,VALID,23.5966,VALID,57,VALID,0.148047,
2008-03-22, 00:20:05,VALID,1008.98,VALID,0,VALID,95.8939,VALID,0,VALID,23.6161,VALID,57,VALID,0,
2008-03-22, 00:21:05,VALID,1008.96,VALID,0,VALID,95.9167,VALID,0,VALID,23.5771,VALID,57,VALID,0,
2008-03-22, 00:22:05,VALID,1008.95,VALID,0,VALID,95.9244,VALID,0,VALID,23.5966,VALID,57,VALID,0,
2008-03-22, 00:23:05,VALID,1008.93,VALID,0,VALID,95.9701,VALID,0,VALID,23.5984,VALID,57,VALID,0,
2008-03-22, 00:24:05,VALID,1008.87,VALID,0,VALID,95.993,VALID,0,VALID,23.5771,VALID,57,VALID,0.0863281,
2008-03-22, 00:25:05,VALID,1008.86,VALID,0,VALID,96.0159,VALID,0,VALID,23.5771,VALID,57,VALID,0,
2008-03-22, 00:26:05,VALID,1008.82,VALID,0,VALID,95.993,VALID,0,VALID,23.5771,VALID,57,VALID,0,
2008-03-22, 00:27:05,VALID,1008.79,VALID,0,VALID,96.0235,VALID,0,VALID,23.5771,VALID,57,VALID,0,
2008-03-22, 00:28:05,VALID,1008.77,VALID,0,VALID,96.115,VALID,0,VALID,23.5966,VALID,57,VALID,0,
2008-03-22, 00:29:05,VALID,1008.75,VALID,0,VALID,96.0845,VALID,0,VALID,23.6161,VALID,12,VALID,0.295703,
2008-03-22, 00:30:05,VALID,1008.74,VALID,0,VALID,96.054,VALID,0,VALID,23.6179,VALID,12,VALID,0,
2008-03-22, 00:31:05,VALID,1008.73,VALID,0,VALID,96.0082,VALID,0,VALID,23.5771,VALID,12,VALID,0,
2008-03-22, 00:32:05,VALID,1008.73,VALID,0,VALID,96.0082,VALID,0,VALID,23.5984,VALID,12,VALID,0,
2008-03-22, 00:33:05,VALID,1008.72,VALID,0,VALID,96.0159,VALID,0,VALID,23.5576,VALID,12,VALID,0,
2008-03-22, 00:34:05,VALID,1008.74,VALID,0,VALID,96.0311,VALID,0,VALID,23.5381,VALID,12,VALID,0,
2008-03-22, 00:35:05,VALID,1008.74,VALID,0,VALID,96.0616,VALID,0,VALID,23.5576,VALID,12,VALID,0,
2008-03-22, 00:36:05,VALID,1008.75,VALID,0,VALID,96.0692,VALID,0,VALID,23.5381,VALID,12,VALID,0,
2008-03-22, 00:37:05,VALID,1008.75,VALID,0,VALID,96.0921,VALID,0,VALID,23.5576,VALID,12,VALID,0,
2008-03-22, 00:38:05,VALID,1008.75,VALID,0,VALID,96.0845,VALID,0,VALID,23.5594,VALID,12,VALID,0.116406,
2008-03-22, 00:39:05,VALID,1008.75,VALID,0,VALID,96.1379,VALID,0,VALID,23.5594,VALID,12,VALID,0.232422,
2008-03-22, 00:40:05,VALID,1008.75,VALID,0,VALID,96.1379,VALID,0,VALID,23.5576,VALID,12,VALID,0.119531,
2008-03-22, 00:41:05,VALID,1008.71,VALID,0,VALID,96.0921,VALID,0,VALID,23.5381,VALID,12,VALID,0.128125,
2008-03-22, 00:42:05,VALID,1008.72,VALID,0,VALID,96.115,VALID,0,VALID,23.5576,VALID,12,VALID,0.0628906,
2008-03-22, 00:43:05,VALID,1008.73,VALID,0,VALID,96.0997,VALID,0,VALID,23.5381,VALID,12,VALID,0,
2008-03-22, 00:44:05,VALID,1008.72,VALID,0,VALID,96.0845,VALID,0,VALID,23.5381,VALID,12,VALID,0,
2008-03-22, 00:45:05,VALID,1008.74,VALID,0,VALID,96.0921,VALID,0,VALID,23.5381,VALID,12,VALID,0,
2008-03-22, 00:46:05,VALID,1008.71,VALID,0,VALID,96.0464,VALID,0,VALID,23.5381,VALID,12,VALID,0,
2008-03-22, 00:47:05,VALID,1008.72,VALID,0,VALID,96.0311,VALID,0,VALID,23.5381,VALID,12,VALID,0,
2008-03-22, 00:48:05,VALID,1008.68,VALID,0,VALID,96.0845,VALID,0,VALID,23.5381,VALID,12,VALID,0,
2008-03-22, 00:49:05,VALID,1008.69,VALID,0,VALID,96.115,VALID,0,VALID,23.5186,VALID,12,VALID,0,
2008-03-22, 00:50:05,VALID,1008.66,VALID,0,VALID,96.1302,VALID,0,VALID,23.5186,VALID,12,VALID,0,
2008-03-22, 00:51:05,VALID,1008.61,VALID,0,VALID,96.1684,VALID,0,VALID,23.5381,VALID,12,VALID,0,
2008-03-22, 00:52:05,VALID,1008.6,VALID,0,VALID,96.1379,VALID,0,VALID,23.5186,VALID,12,VALID,0,
2008-03-22, 00:53:05,VALID,1008.6,VALID,0,VALID,96.1302,VALID,0,VALID,23.5399,VALID,12,VALID,0,
2008-03-22, 00:54:05,VALID,1008.6,VALID,0,VALID,96.1226,VALID,0,VALID,23.5186,VALID,12,VALID,0,
2008-03-22, 00:55:05,VALID,1008.57,VALID,0,VALID,96.1074,VALID,0.105969,VALID,23.5186,VALID,12,VALID,0,
2008-03-22, 00:56:05,VALID,1008.58,VALID,0,VALID,96.1074,VALID,0.105969,VALID,23.5186,VALID,12,VALID,0,
2008-03-22, 00:57:05,VALID,1008.56,VALID,0,VALID,96.115,VALID,0,VALID,23.4992,VALID,12,VALID,0,
2008-03-22, 00:58:05,VALID,1008.56,VALID,0,VALID,96.1226,VALID,0.105969,VALID,23.4992,VALID,12,VALID,0,
2008-03-22, 00:59:05,VALID,1008.56,VALID,0,VALID,96.1608,VALID,0.105969,VALID,23.4992,VALID,12,VALID,0,
2008-03-22, 01:00:05,VALID,1008.54,VALID,0,VALID,96.1608,VALID,0,VALID,23.4992,VALID,12,VALID,0,
2008-03-22, 01:01:05,VALID,1008.56,VALID,0,VALID,96.1684,VALID,0.105969,VALID,23.4992,VALID,12,VALID,0,
2008-03-22, 01:02:05,VALID,1008.51,VALID,0,VALID,96.176,VALID,0,VALID,23.4992,VALID,12,VALID,0,
2008-03-22, 01:03:05,VALID,1008.5,VALID,0,VALID,96.1836,VALID,0,VALID,23.4992,VALID,12,VALID,0,
2008-03-22, 01:04:05,VALID,1008.46,VALID,0,VALID,96.1989,VALID,0.105969,VALID,23.5186,VALID,12,VALID,0,
2008-03-22, 01:05:05,VALID,1008.47,VALID,0,VALID,96.2141,VALID,0,VALID,23.4992,VALID,12,VALID,0,
2008-03-22, 01:06:04,VALID,1008.44,VALID,0,VALID,96.2141,VALID,0,VALID,23.4992,VALID,12,VALID,0,
2008-03-22, 01:07:04,VALID,1008.41,VALID,0,VALID,96.2294,VALID,0,VALID,23.5186,VALID,12,VALID,0,
2008-03-22, 01:08:04,VALID,1008.36,VALID,0,VALID,96.1913,VALID,0.105969,VALID,23.5186,VALID,12,VALID,0,
2008-03-22, 01:09:04,VALID,1008.35,VALID,0,VALID,96.2218,VALID,0,VALID,23.5186,VALID,12,VALID,0,
2008-03-22, 01:10:04,VALID,1008.33,VALID,0,VALID,96.2294,VALID,0,VALID,23.5186,VALID,12,VALID,0,
2008-03-22, 01:11:04,VALID,1008.32,VALID,0,VALID,96.2141,VALID,0,VALID,23.4992,VALID,12,VALID,0,
2008-03-22, 01:12:04,VALID,1008.3,VALID,0,VALID,96.1913,VALID,0,VALID,23.4779,VALID,12,VALID,0,
2008-03-22, 01:13:04,VALID,1008.32,VALID,0,VALID,96.1989,VALID,0,VALID,23.4797,VALID,12,VALID,0,
2008-03-22, 01:14:04,VALID,1008.3,VALID,0,VALID,96.176,VALID,0.105969,VALID,23.4992,VALID,12,VALID,0,
2008-03-22, 01:15:04,VALID,1008.28,VALID,0,VALID,96.176,VALID,0,VALID,23.4797,VALID,12,VALID,0,
2008-03-22, 01:16:04,VALID,1008.27,VALID,0,VALID,96.1379,VALID,0,VALID,23.4602,VALID,12,VALID,0,
2008-03-22, 01:17:04,VALID,1008.25,VALID,0,VALID,96.1302,VALID,0,VALID,23.4407,VALID,12,VALID,0,
2008-03-22, 01:18:04,VALID,1008.24,VALID,0,VALID,96.176,VALID,0,VALID,23.4407,VALID,12,VALID,0.275781,
2008-03-22, 01:19:04,VALID,1008.24,VALID,0,VALID,96.1531,VALID,0,VALID,23.462,VALID,12,VALID,0.263672,
2008-03-22, 01:20:04,VALID,1008.21,VALID,0,VALID,96.1302,VALID,0,VALID,23.4212,VALID,12,VALID,0.219141,
2008-03-22, 01:21:04,VALID,1008.22,VALID,0,VALID,96.1455,VALID,0,VALID,23.4212,VALID,12,VALID,0.146875,
2008-03-22, 01:22:04,VALID,1008.23,VALID,0,VALID,96.1836,VALID,0,VALID,23.4407,VALID,12,VALID,0.113281,
2008-03-22, 01:23:04,VALID,1008.25,VALID,0,VALID,96.1989,VALID,0,VALID,23.4212,VALID,12,VALID,0.00859375,
2008-03-22, 01:24:04,VALID,1008.26,VALID,0,VALID,96.2141,VALID,0.105969,VALID,23.4212,VALID,12,VALID,0,
2008-03-22, 01:25:04,VALID,1008.25,VALID,0,VALID,96.1836,VALID,0,VALID,23.4212,VALID,12,VALID,0.133203,
2008-03-22, 01:26:04,VALID,1008.22,VALID,0,VALID,96.1989,VALID,0.105969,VALID,23.4,VALID,12,VALID,0.130859,
2008-03-22, 01:27:04,VALID,1008.23,VALID,0,VALID,96.176,VALID,0,VALID,23.4212,VALID,12,VALID,0.201562,
2008-03-22, 01:28:04,VALID,1008.22,VALID,0,VALID,96.2141,VALID,0,VALID,23.4212,VALID,12,VALID,0.172656,
2008-03-22, 01:29:04,VALID,1008.19,VALID,0,VALID,96.1608,VALID,0,VALID,23.4017,VALID,12,VALID,0,
2008-03-22, 01:30:04,VALID,1008.18,VALID,0,VALID,96.1379,VALID,0,VALID,23.4017,VALID,12,VALID,0,
2008-03-22, 01:31:04,VALID,1008.19,VALID,0,VALID,96.1302,VALID,0,VALID,23.3823,VALID,12,VALID,0,
2008-03-22, 01:32:04,VALID,1008.15,VALID,0,VALID,96.1455,VALID,0,VALID,23.3823,VALID,12,VALID,0,
2008-03-22, 01:33:04,VALID,1008.12,VALID,0,VALID,96.115,VALID,0,VALID,23.3415,VALID,12,VALID,0,
2008-03-22, 01:34:04,VALID,1008.14,VALID,0,VALID,96.1608,VALID,0,VALID,23.3628,VALID,12,VALID,0,
2008-03-22, 01:35:04,VALID,1008.11,VALID,0,VALID,96.1379,VALID,0,VALID,23.3238,VALID,12,VALID,0,
2008-03-22, 01:36:04,VALID,1008.08,VALID,0,VALID,96.1455,VALID,0,VALID,23.3238,VALID,12,VALID,0,
2008-03-22, 01:37:04,VALID,1008.06,VALID,0,VALID,96.1913,VALID,0,VALID,23.3238,VALID,12,VALID,0,
2008-03-22, 01:38:04,VALID,1008.05,VALID,0,VALID,96.2218,VALID,0,VALID,23.3238,VALID,12,VALID,0,
2008-03-22, 01:39:04,VALID,1008.03,VALID,0,VALID,96.1684,VALID,0,VALID,23.3043,VALID,12,VALID,0,
2008-03-22, 01:40:04,VALID,1008.02,VALID,0,VALID,96.1302,VALID,0.105969,VALID,23.2636,VALID,12,VALID,0,
2008-03-22, 01:41:04,VALID,1008,VALID,0,VALID,96.1684,VALID,0.105969,VALID,23.2441,VALID,12,VALID,0,
2008-03-22, 01:42:04,VALID,1007.98,VALID,0,VALID,96.2218,VALID,0,VALID,23.2654,VALID,12,VALID,0,
2008-03-22, 01:43:04,VALID,1008,VALID,0,VALID,96.2599,VALID,0.105969,VALID,23.2654,VALID,12,VALID,0,
2008-03-22, 01:44:04,VALID,1008,VALID,0,VALID,96.2675,VALID,0,VALID,23.2441,VALID,12,VALID,0,
2008-03-22, 01:45:04,VALID,1007.98,VALID,0,VALID,96.2599,VALID,0,VALID,23.2654,VALID,12,VALID,0,
2008-03-22, 01:46:04,VALID,1007.99,VALID,0,VALID,96.2294,VALID,0.105969,VALID,23.2264,VALID,12,VALID,0,
2008-03-22, 01:47:04,VALID,1007.99,VALID,0,VALID,96.2446,VALID,0,VALID,23.2069,VALID,12,VALID,0,
2008-03-22, 01:48:04,VALID,1007.95,VALID,0,VALID,96.2828,VALID,0.105969,VALID,23.2051,VALID,12,VALID,0,
2008-03-22, 01:49:04,VALID,1007.94,VALID,0,VALID,96.3438,VALID,0,VALID,23.2051,VALID,12,VALID,0,
2008-03-22, 01:50:04,VALID,1007.92,VALID,0,VALID,96.3514,VALID,0.105969,VALID,23.2051,VALID,12,VALID,0,
2008-03-22, 01:51:04,VALID,1007.92,VALID,0,VALID,96.3514,VALID,0,VALID,23.2051,VALID,12,VALID,0,
2008-03-22, 01:52:04,VALID,1007.92,VALID,0,VALID,96.3514,VALID,0,VALID,23.2069,VALID,12,VALID,0,
2008-03-22, 01:53:04,VALID,1007.92,VALID,0,VALID,96.3438,VALID,0,VALID,23.2069,VALID,12,VALID,0,
2008-03-22, 01:54:04,VALID,1007.91,VALID,0,VALID,96.3743,VALID,0,VALID,23.1874,VALID,12,VALID,0,
2008-03-22, 01:55:04,VALID,1007.9,VALID,0,VALID,96.3819,VALID,0,VALID,23.2069,VALID,12,VALID,0,
2008-03-22, 01:56:04,VALID,1007.92,VALID,0,VALID,96.3971,VALID,0.105969,VALID,23.1874,VALID,12,VALID,0,
2008-03-22, 01:57:04,VALID,1007.89,VALID,0,VALID,96.2904,VALID,0,VALID,23.129,VALID,12,VALID,0,
2008-03-22, 01:58:04,VALID,1007.91,VALID,0,VALID,96.298,VALID,0,VALID,23.1095,VALID,12,VALID,0,
2008-03-22, 01:59:04,VALID,1007.9,VALID,0,VALID,96.3361,VALID,0,VALID,23.09,VALID,12,VALID,0,
2008-03-22, 02:00:04,VALID,1007.9,VALID,0,VALID,96.3895,VALID,0,VALID,23.1095,VALID,12,VALID,0,
2008-03-22, 02:01:04,VALID,1007.9,VALID,0,VALID,96.4582,VALID,0,VALID,23.129,VALID,12,VALID,0,
2008-03-22, 02:02:04,VALID,1007.88,VALID,0,VALID,96.481,VALID,0,VALID,23.129,VALID,12,VALID,0,
2008-03-22, 02:03:04,VALID,1007.89,VALID,0,VALID,96.4429,VALID,0,VALID,23.129,VALID,12,VALID,0,
2008-03-22, 02:04:04,VALID,1007.89,VALID,0,VALID,96.5115,VALID,0,VALID,23.129,VALID,12,VALID,0,
2008-03-22, 02:05:04,VALID,1007.88,VALID,0,VALID,96.4963,VALID,0,VALID,23.129,VALID,12,VALID,0,
2008-03-22, 02:06:04,VALID,1007.87,VALID,0,VALID,96.5115,VALID,0,VALID,23.1272,VALID,12,VALID,0,
2008-03-22, 02:07:04,VALID,1007.89,VALID,0,VALID,96.5115,VALID,0,VALID,23.1485,VALID,12,VALID,0,
2008-03-22, 02:08:04,VALID,1007.9,VALID,0,VALID,96.5344,VALID,0,VALID,23.1485,VALID,12,VALID,0,
2008-03-22, 02:09:04,VALID,1007.87,VALID,0,VALID,96.5039,VALID,0,VALID,23.129,VALID,12,VALID,0,
2008-03-22, 02:10:04,VALID,1007.86,VALID,0,VALID,96.42,VALID,0,VALID,23.09,VALID,12,VALID,0,
2008-03-22, 02:11:04,VALID,1007.86,VALID,0,VALID,96.3819,VALID,0,VALID,23.0511,VALID,12,VALID,0,
2008-03-22, 02:12:04,VALID,1007.83,VALID,0,VALID,96.4124,VALID,0,VALID,23.0316,VALID,12,VALID,0,
2008-03-22, 02:13:04,VALID,1007.85,VALID,0,VALID,96.4124,VALID,0,VALID,23.0121,VALID,12,VALID,0,
2008-03-22, 02:14:04,VALID,1007.87,VALID,0,VALID,96.4124,VALID,0,VALID,23.0121,VALID,12,VALID,0,
2008-03-22, 02:15:04,VALID,1007.83,VALID,0,VALID,96.3743,VALID,0,VALID,22.9324,VALID,12,VALID,0,
2008-03-22, 02:16:04,VALID,1007.83,VALID,0,VALID,96.4048,VALID,0.105969,VALID,22.9536,VALID,12,VALID,0,
2008-03-22, 02:17:04,VALID,1007.8,VALID,0,VALID,96.4353,VALID,0.105969,VALID,22.9731,VALID,12,VALID,0,
2008-03-22, 02:18:04,VALID,1007.8,VALID,0,VALID,96.4124,VALID,0,VALID,22.9342,VALID,12,VALID,0,
2008-03-22, 02:19:04,VALID,1007.79,VALID,0,VALID,96.4658,VALID,0,VALID,22.9342,VALID,12,VALID,0,
2008-03-22, 02:20:04,VALID,1007.79,VALID,0,VALID,96.5192,VALID,0.105969,VALID,22.9536,VALID,12,VALID,0,
2008-03-22, 02:21:04,VALID,1007.77,VALID,0,VALID,96.5268,VALID,0,VALID,22.9536,VALID,12,VALID,0,
2008-03-22, 02:22:04,VALID,1007.8,VALID,0,VALID,96.5802,VALID,0.105969,VALID,22.9731,VALID,12,VALID,0,
2008-03-22, 02:23:04,VALID,1007.82,VALID,0,VALID,96.603,VALID,0,VALID,22.9731,VALID,12,VALID,0,
2008-03-22, 02:24:04,VALID,1007.83,VALID,0,VALID,96.603,VALID,0,VALID,23.0121,VALID,12,VALID,0,
2008-03-22, 02:25:04,VALID,1007.82,VALID,0,VALID,96.6183,VALID,0,VALID,23.0121,VALID,12,VALID,0,
2008-03-22, 02:26:04,VALID,1007.85,VALID,0,VALID,96.6183,VALID,0.105969,VALID,22.9909,VALID,12,VALID,0,
2008-03-22, 02:27:04,VALID,1007.81,VALID,0,VALID,96.6183,VALID,0.105969,VALID,23.0103,VALID,12,VALID,0,
2008-03-22, 02:28:04,VALID,1007.85,VALID,0,VALID,96.603,VALID,0.105969,VALID,23.0103,VALID,12,VALID,0,
2008-03-22, 02:29:04,VALID,1007.81,VALID,0,VALID,96.5878,VALID,0,VALID,23.0316,VALID,12,VALID,0,
2008-03-22, 02:30:04,VALID,1007.82,VALID,0,VALID,96.5878,VALID,0.105969,VALID,23.0316,VALID,12,VALID,0,
2008-03-22, 02:31:04,VALID,1007.8,VALID,0,VALID,96.5497,VALID,0.105969,VALID,22.9909,VALID,12,VALID,0,
2008-03-22, 02:32:04,VALID,1007.83,VALID,0,VALID,96.5344,VALID,0,VALID,22.9926,VALID,12,VALID,0,
2008-03-22, 02:33:04,VALID,1007.79,VALID,0,VALID,96.5039,VALID,0.105969,VALID,22.9714,VALID,12,VALID,0,
2008-03-22, 02:34:04,VALID,1007.78,VALID,0,VALID,96.542,VALID,0.105969,VALID,22.9731,VALID,12,VALID,0,
2008-03-22, 02:35:04,VALID,1007.79,VALID,0,VALID,96.5649,VALID,0,VALID,22.9536,VALID,12,VALID,0,
2008-03-22, 02:36:04,VALID,1007.8,VALID,0,VALID,96.5497,VALID,0,VALID,22.9519,VALID,12,VALID,0,
2008-03-22, 02:37:04,VALID,1007.76,VALID,0,VALID,96.5344,VALID,0,VALID,22.9342,VALID,12,VALID,0,
2008-03-22, 02:38:04,VALID,1007.78,VALID,0,VALID,96.5878,VALID,0.105969,VALID,22.9342,VALID,12,VALID,0,
2008-03-22, 02:39:04,VALID,1007.78,VALID,0,VALID,96.6412,VALID,0.105969,VALID,22.9731,VALID,12,VALID,0,
2008-03-22, 02:40:04,VALID,1007.77,VALID,0,VALID,96.6259,VALID,0.105969,VALID,22.9731,VALID,12,VALID,0,
2008-03-22, 02:41:04,VALID,1007.8,VALID,0,VALID,96.5954,VALID,0,VALID,22.9536,VALID,12,VALID,0,
2008-03-22, 02:42:04,VALID,1007.8,VALID,0,VALID,96.5268,VALID,0.105969,VALID,22.9536,VALID,12,VALID,0,
2008-03-22, 02:43:04,VALID,1007.8,VALID,0,VALID,96.4963,VALID,0,VALID,22.8952,VALID,12,VALID,0,
2008-03-22, 02:44:04,VALID,1007.81,VALID,0,VALID,96.5039,VALID,0.105969,VALID,22.8952,VALID,12,VALID,0,
2008-03-22, 02:45:04,VALID,1007.8,VALID,0,VALID,96.5573,VALID,0,VALID,22.8757,VALID,12,VALID,0,
2008-03-22, 02:46:04,VALID,1007.76,VALID,0,VALID,96.5649,VALID,0,VALID,22.8757,VALID,12,VALID,0,
2008-03-22, 02:47:04,VALID,1007.74,VALID,0,VALID,96.5954,VALID,0.105969,VALID,22.8952,VALID,12,VALID,0,
2008-03-22, 02:48:04,VALID,1007.72,VALID,0,VALID,96.6107,VALID,0,VALID,22.8952,VALID,12,VALID,0,
2008-03-22, 02:49:04,VALID,1007.69,VALID,0,VALID,96.5725,VALID,0,VALID,22.8952,VALID,12,VALID,0,
2008-03-22, 02:50:04,VALID,1007.69,VALID,0,VALID,96.5954,VALID,0.105969,VALID,22.8757,VALID,12,VALID,0,
2008-03-22, 02:51:04,VALID,1007.69,VALID,0,VALID,96.664,VALID,0,VALID,22.8952,VALID,11,VALID,0,
2008-03-22, 02:52:04,VALID,1007.7,VALID,0,VALID,96.603,VALID,0,VALID,22.8952,VALID,3,VALID,0,
2008-03-22, 02:53:04,VALID,1007.68,VALID,0,VALID,96.6564,VALID,0.105969,VALID,22.9147,VALID,3,VALID,0,
2008-03-22, 02:54:04,VALID,1007.67,VALID,0,VALID,96.5802,VALID,0,VALID,22.9147,VALID,360,VALID,0.120703,
2008-03-22, 02:55:04,VALID,1007.7,VALID,0,VALID,96.5039,VALID,0,VALID,22.8757,VALID,360,VALID,0.171484,
2008-03-22, 02:56:04,VALID,1007.73,VALID,0,VALID,96.5268,VALID,0.105969,VALID,22.8545,VALID,360,VALID,0.320703,
2008-03-22, 02:57:04,VALID,1007.72,VALID,0,VALID,96.5878,VALID,0,VALID,22.8757,VALID,360,VALID,0.217187,
2008-03-22, 02:58:04,VALID,1007.69,VALID,0,VALID,96.5344,VALID,0,VALID,22.8562,VALID,360,VALID,0.296875,
2008-03-22, 02:59:04,VALID,1007.67,VALID,0,VALID,96.5268,VALID,0.105969,VALID,22.8562,VALID,360,VALID,0.357812,
2008-03-22, 03:00:04,VALID,1007.69,VALID,0,VALID,96.4658,VALID,0,VALID,22.8562,VALID,1,VALID,0.30625,
2008-03-22, 03:01:04,VALID,1007.68,VALID,0,VALID,96.481,VALID,0.105969,VALID,22.8173,VALID,1,VALID,0.170703,
2008-03-22, 03:02:04,VALID,1007.66,VALID,0,VALID,96.5039,VALID,0,VALID,22.7978,VALID,1,VALID,0.00117188,
2008-03-22, 03:03:04,VALID,1007.67,VALID,0,VALID,96.4887,VALID,0.105969,VALID,22.7766,VALID,1,VALID,0,
2008-03-22, 03:04:04,VALID,1007.66,VALID,0,VALID,96.4963,VALID,0.105969,VALID,22.7571,VALID,1,VALID,0,
2008-03-22, 03:05:04,VALID,1007.66,VALID,0,VALID,96.5268,VALID,0,VALID,22.7978,VALID,1,VALID,0,
2008-03-22, 03:06:04,VALID,1007.65,VALID,0,VALID,96.5192,VALID,0.105969,VALID,22.7783,VALID,360,VALID,0,
2008-03-22, 03:07:04,VALID,1007.62,VALID,0,VALID,96.5039,VALID,0.105969,VALID,22.7571,VALID,1,VALID,0.214453,
2008-03-22, 03:08:04,VALID,1007.65,VALID,0,VALID,96.5802,VALID,0.105969,VALID,22.7766,VALID,1,VALID,0.319922,
2008-03-22, 03:09:04,VALID,1007.62,VALID,0,VALID,96.5268,VALID,0.105969,VALID,22.7766,VALID,1,VALID,0.265234,
2008-03-22, 03:10:04,VALID,1007.61,VALID,0,VALID,96.481,VALID,0.105969,VALID,22.7588,VALID,1,VALID,0.238672,
2008-03-22, 03:11:04,VALID,1007.6,VALID,0,VALID,96.4887,VALID,0.105969,VALID,22.7571,VALID,1,VALID,0.191406,
2008-03-22, 03:12:04,VALID,1007.63,VALID,0,VALID,96.5192,VALID,0.105969,VALID,22.7766,VALID,360,VALID,0.0953125,
2008-03-22, 03:13:04,VALID,1007.64,VALID,0,VALID,96.5192,VALID,0,VALID,22.7571,VALID,1,VALID,0,
2008-03-22, 03:14:04,VALID,1007.64,VALID,0,VALID,96.5039,VALID,0.105969,VALID,22.7376,VALID,1,VALID,0,
2008-03-22, 03:15:04,VALID,1007.67,VALID,0,VALID,96.4734,VALID,0.105969,VALID,22.7182,VALID,1,VALID,0,
2008-03-22, 03:16:04,VALID,1007.66,VALID,0,VALID,96.5039,VALID,0.105969,VALID,22.7182,VALID,1,VALID,0,
2008-03-22, 03:17:04,VALID,1007.66,VALID,0,VALID,96.5954,VALID,0,VALID,22.7783,VALID,1,VALID,0,
2008-03-22, 03:18:04,VALID,1007.65,VALID,0,VALID,96.6107,VALID,0,VALID,22.7766,VALID,1,VALID,0.0164062,
2008-03-22, 03:19:04,VALID,1007.65,VALID,0,VALID,96.5725,VALID,0.105969,VALID,22.7978,VALID,1,VALID,0.178906,
2008-03-22, 03:20:04,VALID,1007.64,VALID,0,VALID,96.5725,VALID,0,VALID,22.7978,VALID,360,VALID,0.132813,
2008-03-22, 03:21:04,VALID,1007.67,VALID,0,VALID,96.5725,VALID,0.105969,VALID,22.7978,VALID,1,VALID,0,
2008-03-22, 03:22:04,VALID,1007.66,VALID,0,VALID,96.5802,VALID,0.105969,VALID,22.7978,VALID,360,VALID,0,
2008-03-22, 03:23:04,VALID,1007.62,VALID,0,VALID,96.5649,VALID,0,VALID,22.7978,VALID,1,VALID,0,
2008-03-22, 03:24:04,VALID,1007.61,VALID,0,VALID,96.5573,VALID,0.105969,VALID,22.7978,VALID,1,VALID,0,
2008-03-22, 03:25:04,VALID,1007.58,VALID,0,VALID,96.5725,VALID,0,VALID,22.7783,VALID,1,VALID,0,
2008-03-22, 03:26:04,VALID,1007.56,VALID,0,VALID,96.5802,VALID,0,VALID,22.7783,VALID,1,VALID,0.117578,
2008-03-22, 03:27:04,VALID,1007.56,VALID,0,VALID,96.5878,VALID,0.105969,VALID,22.7766,VALID,1,VALID,0.228516,
2008-03-22, 03:28:04,VALID,1007.58,VALID,0,VALID,96.6183,VALID,0,VALID,22.7978,VALID,1,VALID,0.169141,
2008-03-22, 03:29:04,VALID,1007.59,VALID,0,VALID,96.6183,VALID,0.105969,VALID,22.8173,VALID,1,VALID,0.163281,
2008-03-22, 03:30:04,VALID,1007.58,VALID,0,VALID,96.6564,VALID,0.105969,VALID,22.8173,VALID,1,VALID,0.00898437,
2008-03-22, 03:31:04,VALID,1007.59,VALID,0,VALID,96.6335,VALID,0,VALID,22.8368,VALID,1,VALID,0,
2008-03-22, 03:32:04,VALID,1007.58,VALID,0,VALID,96.6259,VALID,0,VALID,22.8368,VALID,360,VALID,0,
2008-03-22, 03:33:04,VALID,1007.57,VALID,0,VALID,96.5725,VALID,0.105969,VALID,22.8173,VALID,1,VALID,0.0304688,
2008-03-22, 03:34:04,VALID,1007.55,VALID,0,VALID,96.6183,VALID,0,VALID,22.8173,VALID,1,VALID,0,
2008-03-22, 03:35:04,VALID,1007.56,VALID,0,VALID,96.6488,VALID,0.105969,VALID,22.8368,VALID,360,VALID,0,
2008-03-22, 03:36:04,VALID,1007.54,VALID,0,VALID,96.6183,VALID,0,VALID,22.8368,VALID,1,VALID,0,
2008-03-22, 03:37:04,VALID,1007.51,VALID,0,VALID,96.5954,VALID,0.105969,VALID,22.8368,VALID,360,VALID,0,
2008-03-22, 03:38:04,VALID,1007.49,VALID,0,VALID,96.5802,VALID,0.105969,VALID,22.8173,VALID,1,VALID,0,
2008-03-22, 03:39:04,VALID,1007.51,VALID,0,VALID,96.5649,VALID,0.105969,VALID,22.8173,VALID,360,VALID,0,
2008-03-22, 03:40:04,VALID,1007.49,VALID,0,VALID,96.5725,VALID,0,VALID,22.7978,VALID,1,VALID,0,
2008-03-22, 03:41:04,VALID,1007.49,VALID,0,VALID,96.5573,VALID,0,VALID,22.7978,VALID,1,VALID,0,
2008-03-22, 03:42:04,VALID,1007.48,VALID,0,VALID,96.5497,VALID,0.105969,VALID,22.7571,VALID,1,VALID,0,
2008-03-22, 03:43:04,VALID,1007.43,VALID,0,VALID,96.4963,VALID,0,VALID,22.7783,VALID,1,VALID,0,
2008-03-22, 03:44:04,VALID,1007.45,VALID,0,VALID,96.5115,VALID,0.105969,VALID,22.7588,VALID,1,VALID,0,
2008-03-22, 03:45:04,VALID,1007.44,VALID,0,VALID,96.5115,VALID,0.105969,VALID,22.7588,VALID,1,VALID,0,
2008-03-22, 03:46:04,VALID,1007.43,VALID,0,VALID,96.4963,VALID,0.105969,VALID,22.7588,VALID,360,VALID,0,
2008-03-22, 03:47:04,VALID,1007.41,VALID,0,VALID,96.4658,VALID,0.105969,VALID,22.7394,VALID,1,VALID,0,
2008-03-22, 03:48:04,VALID,1007.4,VALID,0,VALID,96.5649,VALID,0.105969,VALID,22.7394,VALID,360,VALID,0,
2008-03-22, 03:49:04,VALID,1007.39,VALID,0,VALID,96.6107,VALID,0.105969,VALID,22.7783,VALID,1,VALID,0,
2008-03-22, 03:50:04,VALID,1007.37,VALID,0,VALID,96.603,VALID,0.105969,VALID,22.7978,VALID,1,VALID,0,
2008-03-22, 03:51:04,VALID,1007.37,VALID,0,VALID,96.603,VALID,0.105969,VALID,22.7978,VALID,1,VALID,0,
2008-03-22, 03:52:04,VALID,1007.4,VALID,0,VALID,96.603,VALID,0.105969,VALID,22.7766,VALID,1,VALID,0,
2008-03-22, 03:53:04,VALID,1007.37,VALID,0,VALID,96.5802,VALID,0,VALID,22.7978,VALID,360,VALID,0,
2008-03-22, 03:54:04,VALID,1007.41,VALID,0,VALID,96.6107,VALID,0.105969,VALID,22.7978,VALID,1,VALID,0,